Date,MW,Mvar
01/01/2018 00:15,14.74,1.76
01/01/2018 00:30,15.54,2.03
01/01/2018 00:45,14.9,2.07
01/01/2018 01:00,14.77,2.08
01/01/2018 01:15,14.56,1.92
01/01/2018 01:30,13.61,1.84
01/01/2018 01:45,13.42,1.63
01/01/2018 02:00,13.49,1.61
01/01/2018 02:15,13,1.67
01/01/2018 02:30,13.18,1.48
01/01/2018 02:45,13.17,1.61
01/01/2018 03:00,13.07,1.6
01/01/2018 03:15,12.6,1.6
01/01/2018 03:30,12.25,1.57
01/01/2018 03:45,12.31,1.5
01/01/2018 04:00,12.43,1.71
01/01/2018 04:15,12.39,1.68
01/01/2018 04:30,12.08,1.49
01/01/2018 04:45,12.18,1.53
01/01/2018 05:00,12.14,1.55
01/01/2018 05:15,12.47,1.63
01/01/2018 05:30,12.92,1.92
01/01/2018 05:45,13.14,2.09
01/01/2018 06:00,12.96,1.84
01/01/2018 06:15,13.62,2.14
01/01/2018 06:30,13.27,1.96
01/01/2018 06:45,13.94,2.3
01/01/2018 07:00,14.73,2.72
01/01/2018 07:15,15.51,3.26
01/01/2018 07:30,15.31,3.21
01/01/2018 07:45,15.4,3.07
01/01/2018 08:00,16.32,3.34
01/01/2018 08:15,16.05,3.34
01/01/2018 08:30,16.03,3.55
01/01/2018 08:45,16.52,3.82
01/01/2018 09:00,17.3,4.14
01/01/2018 09:15,16.76,3.84
01/01/2018 09:30,17.56,4.48
01/01/2018 09:45,17.47,4.23
01/01/2018 10:00,18.07,4.5
01/01/2018 10:15,18.63,4.78
01/01/2018 10:30,18.41,4.7
01/01/2018 10:45,19.2,5.14
01/01/2018 11:00,19.37,5.1
01/01/2018 11:15,19.34,5.22
01/01/2018 11:30,19.35,5.23
01/01/2018 11:45,19.85,5.39
01/01/2018 12:00,19.79,5.36
01/01/2018 12:15,19.6,5.33
01/01/2018 12:30,19.85,5.49
01/01/2018 12:45,19.77,5.37
01/01/2018 13:00,19.68,5.63
01/01/2018 13:15,19.93,5.74
01/01/2018 13:30,19.88,5.59
01/01/2018 13:45,19.61,5.92
01/01/2018 14:00,20.37,-0.88
01/01/2018 14:15,20.5,-0.74
01/01/2018 14:30,21.13,-0.7
01/01/2018 14:45,21.02,-0.75
01/01/2018 15:00,20.84,-0.63
01/01/2018 15:15,20.68,-0.8
01/01/2018 15:30,21.37,-0.46
01/01/2018 15:45,21.19,-0.44
01/01/2018 16:00,21.55,-0.22
01/01/2018 16:15,21.67,-0.43
01/01/2018 16:30,21.66,-0.49
01/01/2018 16:45,22.19,-0.07
01/01/2018 17:00,22.3,-0.45
01/01/2018 17:15,22.47,-0.37
01/01/2018 17:30,22.33,-0.38
01/01/2018 17:45,22.02,-0.81
01/01/2018 18:00,21.86,-0.94
01/01/2018 18:15,20.96,-1.68
01/01/2018 18:30,20.61,-1.96
01/01/2018 18:45,20.71,-2.14
01/01/2018 19:00,20.17,-2.38
01/01/2018 19:15,19.26,-2.93
01/01/2018 19:30,19,-3.01
01/01/2018 19:45,19.22,-2.91
01/01/2018 20:00,18.73,-3.18
01/01/2018 20:15,18.44,-3.48
01/01/2018 20:30,17.78,3.28
01/01/2018 20:45,17.67,3.03
01/01/2018 21:00,18.09,3.23
01/01/2018 21:15,17.74,3.19
01/01/2018 21:30,17.74,3.05
01/01/2018 21:45,17.38,2.77
01/01/2018 22:00,16.89,2.75
01/01/2018 22:15,16.08,2.31
01/01/2018 22:30,16.52,2.49
01/01/2018 22:45,15.63,2.41
01/01/2018 23:00,15.43,2.28
01/01/2018 23:15,15.36,2.15
01/01/2018 23:30,14.87,2.12
01/01/2018 23:45,15.06,2.11
02/01/2018 00:00,14.75,2
02/01/2018 00:15,14.57,1.88
02/01/2018 00:30,14.64,1.93
02/01/2018 00:45,14.73,1.81
02/01/2018 01:00,13.68,1.85
02/01/2018 01:15,13.08,1.75
02/01/2018 01:30,12.88,1.71
02/01/2018 01:45,12.86,1.83
02/01/2018 02:00,12.31,1.78
02/01/2018 02:15,12.28,1.62
02/01/2018 02:30,12.4,1.78
02/01/2018 02:45,12.08,1.7
02/01/2018 03:00,12.03,1.62
02/01/2018 03:15,11.99,1.67
02/01/2018 03:30,12.09,1.83
02/01/2018 03:45,11.8,1.52
02/01/2018 04:00,11.99,1.71
02/01/2018 04:15,12.08,1.81
02/01/2018 04:30,12.25,1.65
02/01/2018 04:45,12.07,1.78
02/01/2018 05:00,12.35,1.9
02/01/2018 05:15,13.03,2.13
02/01/2018 05:30,12.92,2.22
02/01/2018 05:45,13.48,2.15
02/01/2018 06:00,13.83,2.24
02/01/2018 06:15,15.07,2.84
02/01/2018 06:30,15.06,2.82
02/01/2018 06:45,15.86,2.81
02/01/2018 07:00,16.73,3.45
02/01/2018 07:15,18.21,4.11
02/01/2018 07:30,18.37,4.34
02/01/2018 07:45,19.6,5.13
02/01/2018 08:00,20,5.14
02/01/2018 08:15,20.93,5.47
02/01/2018 08:30,21.3,-2.51
02/01/2018 08:45,21.84,-2.26
02/01/2018 09:00,22.13,-1.98
02/01/2018 09:15,23.31,-1.6
02/01/2018 09:30,23.55,-1.63
02/01/2018 09:45,23.62,-1.41
02/01/2018 10:00,23.8,-1.3
02/01/2018 10:15,24.93,-0.72
02/01/2018 10:30,24.46,-0.97
02/01/2018 10:45,24.74,-0.76
02/01/2018 11:00,25.1,-0.55
02/01/2018 11:15,25.35,0.01
02/01/2018 11:30,25.16,0.08
02/01/2018 11:45,25.58,0.03
02/01/2018 12:00,24.91,-0.57
02/01/2018 12:15,24.39,-0.35
02/01/2018 12:30,25.25,0.15
02/01/2018 12:45,25.51,0.19
02/01/2018 13:00,25.62,0.33
02/01/2018 13:15,23.45,-1.22
02/01/2018 13:30,24.81,-0.52
02/01/2018 13:45,24.52,-0.54
02/01/2018 14:00,24.24,-0.47
02/01/2018 14:15,24.22,-0.6
02/01/2018 14:30,24.74,-0.33
02/01/2018 14:45,25.21,0.55
02/01/2018 15:00,24.97,0.05
02/01/2018 15:15,24.98,0.05
02/01/2018 15:30,24.9,0.17
02/01/2018 15:45,25.1,0.25
02/01/2018 16:00,25.21,0.26
02/01/2018 16:15,24.58,0.05
02/01/2018 16:30,25.66,0.17
02/01/2018 16:45,25.71,0.24
02/01/2018 17:00,25.51,0.19
02/01/2018 17:15,25.06,0.04
02/01/2018 17:30,24.97,-0.44
02/01/2018 17:45,25.35,-0.54
02/01/2018 18:00,23.85,-1.19
02/01/2018 18:15,22.51,-2.35
02/01/2018 18:30,21.6,-1.72
02/01/2018 18:45,21.88,-1.83
02/01/2018 19:00,20.97,-2.48
02/01/2018 19:15,20.78,-2.57
02/01/2018 19:30,19.73,-2.89
02/01/2018 19:45,19.81,-3
02/01/2018 20:00,19.6,-3.45
02/01/2018 20:15,19.46,-3.5
02/01/2018 20:30,19.41,-3.57
02/01/2018 20:45,18.75,-3.63
02/01/2018 21:00,19.02,-3.43
02/01/2018 21:15,18.9,-3.63
02/01/2018 21:30,18.7,-3.83
02/01/2018 21:45,18.41,3.16
02/01/2018 22:00,17.81,3.05
02/01/2018 22:15,17.11,2.73
02/01/2018 22:30,16.8,2.6
02/01/2018 22:45,16.74,2.61
02/01/2018 23:00,16.1,2.46
02/01/2018 23:15,16.47,2.57
02/01/2018 23:30,16.39,2.59
02/01/2018 23:45,15.43,2.23
03/01/2018 00:00,15.15,2.24
03/01/2018 00:15,15.53,2.33
03/01/2018 00:30,14.92,2.09
03/01/2018 00:45,14.81,1.97
03/01/2018 01:00,13.88,1.95
03/01/2018 01:15,13.4,1.76
03/01/2018 01:30,13,1.76
03/01/2018 01:45,12.81,1.84
03/01/2018 02:00,12.39,1.67
03/01/2018 02:15,12.42,1.67
03/01/2018 02:30,12.18,1.67
03/01/2018 02:45,12.18,1.69
03/01/2018 03:00,12.25,1.84
03/01/2018 03:15,12.21,1.72
03/01/2018 03:30,12.19,1.76
03/01/2018 03:45,12.33,1.98
03/01/2018 04:00,11.99,1.75
03/01/2018 04:15,11.99,1.86
03/01/2018 04:30,12.16,1.79
03/01/2018 04:45,12.13,1.8
03/01/2018 05:00,12.68,1.97
03/01/2018 05:15,12.75,1.79
03/01/2018 05:30,12.94,1.98
03/01/2018 05:45,13.59,2.01
03/01/2018 06:00,13.91,2.17
03/01/2018 06:15,14.6,2.54
03/01/2018 06:30,15.08,2.33
03/01/2018 06:45,15.6,2.51
03/01/2018 07:00,16.94,3.24
03/01/2018 07:15,18.08,3.55
03/01/2018 07:30,18.77,3.82
03/01/2018 07:45,18.83,3.88
03/01/2018 08:00,19.76,4.44
03/01/2018 08:15,20.17,4.88
03/01/2018 08:30,21.03,3.9
03/01/2018 08:45,21.13,3.6
03/01/2018 09:00,21.37,3.68
03/01/2018 09:15,21.95,3.95
03/01/2018 09:30,22.08,3.89
03/01/2018 09:45,21.92,4.19
03/01/2018 10:00,22.52,4.71
03/01/2018 10:15,22.83,4.81
03/01/2018 10:30,23.53,4.78
03/01/2018 10:45,23.73,4.96
03/01/2018 11:00,23.62,5.25
03/01/2018 11:15,23.63,5.12
03/01/2018 11:30,24.18,-1.04
03/01/2018 11:45,24.08,-1.2
03/01/2018 12:00,24.26,-1.13
03/01/2018 12:15,23.84,-1.05
03/01/2018 12:30,23.82,-1.16
03/01/2018 12:45,24.42,-0.86
03/01/2018 13:00,23.94,-0.9
03/01/2018 13:15,24.75,-0.79
03/01/2018 13:30,24.9,-0.47
03/01/2018 13:45,24.62,-0.65
03/01/2018 14:00,24.19,-0.84
03/01/2018 14:15,24.49,-0.27
03/01/2018 14:30,24.07,-0.57
03/01/2018 14:45,24.81,-0.55
03/01/2018 15:00,24.23,-0.57
03/01/2018 15:15,24.57,-0.56
03/01/2018 15:30,24.85,-0.25
03/01/2018 15:45,24.47,-0.6
03/01/2018 16:00,24.62,-0.23
03/01/2018 16:15,24.63,-0.14
03/01/2018 16:30,25.11,0.12
03/01/2018 16:45,25.42,0.01
03/01/2018 17:00,24.8,-0.54
03/01/2018 17:15,25.07,-0.17
03/01/2018 17:30,24.48,-0.91
03/01/2018 17:45,24.76,-0.99
03/01/2018 18:00,23.59,-1.47
03/01/2018 18:15,23.82,-1.6
03/01/2018 18:30,22.54,-1.45
03/01/2018 18:45,22.09,-1.58
03/01/2018 19:00,21.77,-2.02
03/01/2018 19:15,20.88,-2.83
03/01/2018 19:30,20.45,-2.93
03/01/2018 19:45,20.04,-3.1
03/01/2018 20:00,19.36,-3.37
03/01/2018 20:15,19.04,-3.53
03/01/2018 20:30,19.15,-3.44
03/01/2018 20:45,19.12,-3.56
03/01/2018 21:00,19.17,-3.72
03/01/2018 21:15,19.33,-3.54
03/01/2018 21:30,18.95,-3.68
03/01/2018 21:45,18.3,3.08
03/01/2018 22:00,17.72,2.87
03/01/2018 22:15,16.99,2.48
03/01/2018 22:30,16.82,2.42
03/01/2018 22:45,16.54,2.61
03/01/2018 23:00,15.63,2.51
03/01/2018 23:15,15.26,2.02
03/01/2018 23:30,15.11,2.06
03/01/2018 23:45,15.2,2.16
04/01/2018 00:00,14.92,1.93
04/01/2018 00:15,14.65,1.68
04/01/2018 00:30,14.87,1.76
04/01/2018 00:45,14.14,1.77
04/01/2018 01:00,13.86,1.72
04/01/2018 01:15,13.32,1.66
04/01/2018 01:30,12.93,1.69
04/01/2018 01:45,12.62,1.57
04/01/2018 02:00,12.41,1.63
04/01/2018 02:15,12.27,1.61
04/01/2018 02:30,12.19,1.64
04/01/2018 02:45,12.16,1.68
04/01/2018 03:00,12.12,1.66
04/01/2018 03:15,12.07,1.74
04/01/2018 03:30,11.88,1.61
04/01/2018 03:45,12.18,1.82
04/01/2018 04:00,11.99,1.66
04/01/2018 04:15,11.82,1.63
04/01/2018 04:30,12.06,1.83
04/01/2018 04:45,11.94,1.59
04/01/2018 05:00,12.69,1.71
04/01/2018 05:15,12.47,1.65
04/01/2018 05:30,12.53,1.83
04/01/2018 05:45,13.05,1.83
04/01/2018 06:00,13.36,1.7
04/01/2018 06:15,14.11,1.72
04/01/2018 06:30,14.44,2.07
04/01/2018 06:45,15.79,2.54
04/01/2018 07:00,16.57,2.89
04/01/2018 07:15,18.1,3.66
04/01/2018 07:30,18.79,4.18
04/01/2018 07:45,19.82,4.22
04/01/2018 08:00,20.19,4.5
04/01/2018 08:15,20.37,4.71
04/01/2018 08:30,20.91,4.08
04/01/2018 08:45,21.59,4.35
04/01/2018 09:00,22.25,4.9
04/01/2018 09:15,22.7,4.92
04/01/2018 09:30,23.52,5.35
04/01/2018 09:45,24.14,-1.41
04/01/2018 10:00,24.57,-0.57
04/01/2018 10:15,24.93,-0.73
04/01/2018 10:30,25.08,-0.53
04/01/2018 10:45,25.65,-0.06
04/01/2018 11:00,25.57,-0.16
04/01/2018 11:15,25.38,-0.26
04/01/2018 11:30,25.68,0.24
04/01/2018 11:45,25.46,0.31
04/01/2018 12:00,25.74,0.14
04/01/2018 12:15,25.9,0.23
04/01/2018 12:30,26.11,0.5
04/01/2018 12:45,26.71,0.85
04/01/2018 13:00,26.42,0.65
04/01/2018 13:15,25.89,0.27
04/01/2018 13:30,26.31,0.86
04/01/2018 13:45,26.76,0.62
04/01/2018 14:00,26.44,0.57
04/01/2018 14:15,26.7,0.79
04/01/2018 14:30,26.56,1
04/01/2018 14:45,26.75,1.01
04/01/2018 15:00,26.94,0.93
04/01/2018 15:15,27.04,0.98
04/01/2018 15:30,27.25,1.09
04/01/2018 15:45,27.57,1.28
04/01/2018 16:00,27.34,1.24
04/01/2018 16:15,27.47,1.09
04/01/2018 16:30,27.8,1.23
04/01/2018 16:45,27.92,1.53
04/01/2018 17:00,28.09,1.51
04/01/2018 17:15,27.06,0.89
04/01/2018 17:30,26.78,0.76
04/01/2018 17:45,26.91,0.72
04/01/2018 18:00,25.88,-0.58
04/01/2018 18:15,24.69,-1.1
04/01/2018 18:30,24.16,-0.26
04/01/2018 18:45,23.28,-0.73
04/01/2018 19:00,22.67,-1.64
04/01/2018 19:15,21.52,-2.06
04/01/2018 19:30,21.52,-2.11
04/01/2018 19:45,21.31,-2.27
04/01/2018 20:00,20.57,-2.75
04/01/2018 20:15,20.34,-2.87
04/01/2018 20:30,19.67,-3.07
04/01/2018 20:45,19.91,-3.32
04/01/2018 21:00,19.64,-3.2
04/01/2018 21:15,19.9,-2.96
04/01/2018 21:30,19.64,-3.08
04/01/2018 21:45,19.75,-3.1
04/01/2018 22:00,18.03,-3.86
04/01/2018 22:15,17.56,2.65
04/01/2018 22:30,17.47,2.74
04/01/2018 22:45,16.75,2.85
04/01/2018 23:00,16.32,2.63
04/01/2018 23:15,16.07,2.5
04/01/2018 23:30,16.05,2.31
04/01/2018 23:45,15.79,2.31
05/01/2018 00:00,15.34,2.11
05/01/2018 00:15,14.86,1.82
05/01/2018 00:30,14.94,2.05
05/01/2018 00:45,14.6,2
05/01/2018 01:00,13.91,1.93
05/01/2018 01:15,13.53,1.88
05/01/2018 01:30,13.19,1.86
05/01/2018 01:45,13.05,1.88
05/01/2018 02:00,12.76,1.91
05/01/2018 02:15,12.82,1.91
05/01/2018 02:30,12.6,1.91
05/01/2018 02:45,12.48,1.83
05/01/2018 03:00,12.42,1.94
05/01/2018 03:15,12.29,1.88
05/01/2018 03:30,12.22,1.95
05/01/2018 03:45,11.98,1.71
05/01/2018 04:00,12.18,1.75
05/01/2018 04:15,12.1,1.85
05/01/2018 04:30,12.22,1.94
05/01/2018 04:45,12.17,1.78
05/01/2018 05:00,12.84,2.14
05/01/2018 05:15,13.15,1.98
05/01/2018 05:30,13.07,2.07
05/01/2018 05:45,13.88,2.26
05/01/2018 06:00,14.13,2.14
05/01/2018 06:15,14.64,2.55
05/01/2018 06:30,14.96,2.78
05/01/2018 06:45,16.32,2.83
05/01/2018 07:00,17.54,3.48
05/01/2018 07:15,18.25,3.73
05/01/2018 07:30,19.01,4.12
05/01/2018 07:45,19.84,4.6
05/01/2018 08:00,20.95,5.27
05/01/2018 08:15,21.6,5.61
05/01/2018 08:30,22.06,-1.85
05/01/2018 08:45,22.43,-1.85
05/01/2018 09:00,23.62,-1.25
05/01/2018 09:15,24.23,-1.03
05/01/2018 09:30,25.4,-0.63
05/01/2018 09:45,24.9,-0.82
05/01/2018 10:00,25.57,-0.3
05/01/2018 10:15,25.72,0.12
05/01/2018 10:30,25.79,0.08
05/01/2018 10:45,26,0.14
05/01/2018 11:00,26.25,0.27
05/01/2018 11:15,27.06,0.87
05/01/2018 11:30,27.61,1.25
05/01/2018 11:45,27.37,1.11
05/01/2018 12:00,27.8,1.48
05/01/2018 12:15,27.46,1.43
05/01/2018 12:30,27.97,1.72
05/01/2018 12:45,27.65,1.66
05/01/2018 13:00,28.21,1.71
05/01/2018 13:15,28.07,1.47
05/01/2018 13:30,27.97,1.7
05/01/2018 13:45,28.26,1.76
05/01/2018 14:00,28.74,1.79
05/01/2018 14:15,29.53,2.06
05/01/2018 14:30,29.29,2.21
05/01/2018 14:45,29.76,2.27
05/01/2018 15:00,29.86,2.44
05/01/2018 15:15,30.05,2.22
05/01/2018 15:30,30.31,2.38
05/01/2018 15:45,30.43,2.46
05/01/2018 16:00,31.58,3
05/01/2018 16:15,31.46,2.85
05/01/2018 16:30,32.51,3.14
05/01/2018 16:45,32.23,2.94
05/01/2018 17:00,32.82,3.02
05/01/2018 17:15,32.1,2.72
05/01/2018 17:30,31.66,2.42
05/01/2018 17:45,31.28,2.44
05/01/2018 18:00,29.77,1.44
05/01/2018 18:15,28.96,0.7
05/01/2018 18:30,28.59,1.32
05/01/2018 18:45,28.33,1.03
05/01/2018 19:00,27.43,0.77
05/01/2018 19:15,26.5,0.17
05/01/2018 19:30,26.41,0.11
05/01/2018 19:45,24.87,-0.72
05/01/2018 20:00,24.79,-0.67
05/01/2018 20:15,24.13,-1
05/01/2018 20:30,24.25,-0.99
05/01/2018 20:45,23.78,-0.89
05/01/2018 21:00,23.73,-1.31
05/01/2018 21:15,22.94,-1.48
05/01/2018 21:30,22.39,-1.61
05/01/2018 21:45,22.11,-1.95
05/01/2018 22:00,21.69,-2.03
05/01/2018 22:15,21,-2.34
05/01/2018 22:30,20.4,-2.87
05/01/2018 22:45,19.52,-3.01
05/01/2018 23:00,19.02,-3.12
05/01/2018 23:15,18.65,-3.27
05/01/2018 23:30,18.97,-2.98
05/01/2018 23:45,18.4,-3.5
06/01/2018 00:00,17.27,3.06
06/01/2018 00:15,17.59,3.06
06/01/2018 00:30,16.97,3.13
06/01/2018 00:45,17.25,3.46
06/01/2018 01:00,16.28,2.92
06/01/2018 01:15,15.46,3
06/01/2018 01:30,14.98,2.84
06/01/2018 01:45,14.67,2.79
06/01/2018 02:00,14.38,2.67
06/01/2018 02:15,13.96,2.25
06/01/2018 02:30,14.06,2.21
06/01/2018 02:45,13.62,2.18
06/01/2018 03:00,13.7,2.28
06/01/2018 03:15,13.56,2.39
06/01/2018 03:30,13.5,2.32
06/01/2018 03:45,13.24,2.2
06/01/2018 04:00,13.45,2.42
06/01/2018 04:15,13.3,2.33
06/01/2018 04:30,13.07,2.18
06/01/2018 04:45,13.26,2.35
06/01/2018 05:00,13.64,2.18
06/01/2018 05:15,13.51,2.39
06/01/2018 05:30,13.93,2.41
06/01/2018 05:45,13.67,2.3
06/01/2018 06:00,13.64,2.04
06/01/2018 06:15,13.76,2.14
06/01/2018 06:30,14.18,2.46
06/01/2018 06:45,14.48,2.62
06/01/2018 07:00,15.15,2.58
06/01/2018 07:15,15.94,3.11
06/01/2018 07:30,16.43,2.96
06/01/2018 07:45,17.46,3.69
06/01/2018 08:00,18.55,4.11
06/01/2018 08:15,19.02,4.55
06/01/2018 08:30,20.29,4.9
06/01/2018 08:45,21.76,5.85
06/01/2018 09:00,22.32,-1.16
06/01/2018 09:15,23.88,-0.78
06/01/2018 09:30,24.56,-0.57
06/01/2018 09:45,25.57,0.13
06/01/2018 10:00,27.12,0.74
06/01/2018 10:15,27.29,0.85
06/01/2018 10:30,27.94,0.96
06/01/2018 10:45,29.25,1.39
06/01/2018 11:00,28.85,1.26
06/01/2018 11:15,30.1,1.71
06/01/2018 11:30,30.22,1.65
06/01/2018 11:45,30.41,1.81
06/01/2018 12:00,30.72,1.86
06/01/2018 12:15,31.4,1.91
06/01/2018 12:30,31.85,1.96
06/01/2018 12:45,32.54,2.31
06/01/2018 13:00,32.75,2.84
06/01/2018 13:15,33.34,2.74
06/01/2018 13:30,33.54,2.83
06/01/2018 13:45,34.15,2.94
06/01/2018 14:00,33.99,2.76
06/01/2018 14:15,33.88,2.61
06/01/2018 14:30,34.61,3.27
06/01/2018 14:45,35.16,3.49
06/01/2018 15:00,35.28,3.01
06/01/2018 15:15,35.02,2.81
06/01/2018 15:30,35.32,2.99
06/01/2018 15:45,35.75,3.13
06/01/2018 16:00,35.82,2.89
06/01/2018 16:15,35.98,3.01
06/01/2018 16:30,36.13,3.02
06/01/2018 16:45,36.73,3.12
06/01/2018 17:00,36.2,2.86
06/01/2018 17:15,35.39,2.7
06/01/2018 17:30,35.4,2.52
06/01/2018 17:45,34.95,2.04
06/01/2018 18:00,32.48,1.87
06/01/2018 18:15,29.8,0.83
06/01/2018 18:30,29,0.53
06/01/2018 18:45,28.13,0.3
06/01/2018 19:00,27.04,-0.24
06/01/2018 19:15,26.07,-0.74
06/01/2018 19:30,25.63,-0.73
06/01/2018 19:45,24.97,-1.35
06/01/2018 20:00,24.79,-1.18
06/01/2018 20:15,23.87,-1.34
06/01/2018 20:30,23.57,-1.31
06/01/2018 20:45,23.68,-1.52
06/01/2018 21:00,23.49,-1.57
06/01/2018 21:15,23.61,-1.31
06/01/2018 21:30,23.76,-1.65
06/01/2018 21:45,23.36,-1.63
06/01/2018 22:00,22.9,-1.68
06/01/2018 22:15,22.38,-1.89
06/01/2018 22:30,22.02,-1.83
06/01/2018 22:45,21.42,-2.24
06/01/2018 23:00,20.65,-2.22
06/01/2018 23:15,20.38,-2.34
06/01/2018 23:30,19.62,-2.82
06/01/2018 23:45,19.62,-2.94
07/01/2018 00:00,19.58,-2.92
07/01/2018 00:15,18.57,-3.44
07/01/2018 00:30,18.23,-3.42
07/01/2018 00:45,17.46,3.33
07/01/2018 01:00,17.15,3.24
07/01/2018 01:15,16.55,3.26
07/01/2018 01:30,15.73,3.06
07/01/2018 01:45,15.37,3.07
07/01/2018 02:00,15.4,2.95
07/01/2018 02:15,14.96,3.09
07/01/2018 02:30,14.43,2.4
07/01/2018 02:45,14.62,2.81
07/01/2018 03:00,14.24,2.65
07/01/2018 03:15,14.46,2.82
07/01/2018 03:30,14.22,2.6
07/01/2018 03:45,14.09,2.63
07/01/2018 04:00,14.01,2.68
07/01/2018 04:15,14,2.66
07/01/2018 04:30,13.99,2.58
07/01/2018 04:45,14.05,2.58
07/01/2018 05:00,14.04,2.61
07/01/2018 05:15,14.01,2.62
07/01/2018 05:30,14,2.63
07/01/2018 05:45,13.98,2.76
07/01/2018 06:00,14.26,2.5
07/01/2018 06:15,14.15,2.49
07/01/2018 06:30,13.92,2.27
07/01/2018 06:45,14.47,2.49
07/01/2018 07:00,14.99,2.41
07/01/2018 07:15,14.8,2.59
07/01/2018 07:30,15.34,2.51
07/01/2018 07:45,15.57,2.85
07/01/2018 08:00,16.21,2.77
07/01/2018 08:15,16.53,2.95
07/01/2018 08:30,16.33,2.78
07/01/2018 08:45,16.86,3.19
07/01/2018 09:00,17.07,3.65
07/01/2018 09:15,18.34,3.92
07/01/2018 09:30,17.99,3.62
07/01/2018 09:45,18.43,4.01
07/01/2018 10:00,18.98,3.98
07/01/2018 10:15,19.79,4.23
07/01/2018 10:30,20.04,4.32
07/01/2018 10:45,19.85,4.16
07/01/2018 11:00,20.43,4.44
07/01/2018 11:15,19.67,4.12
07/01/2018 11:30,20.6,4.2
07/01/2018 11:45,20.53,4.46
07/01/2018 12:00,20.27,4.06
07/01/2018 12:15,20.18,4.17
07/01/2018 12:30,20.28,4.37
07/01/2018 12:45,20.46,4.65
07/01/2018 13:00,20.15,4.23
07/01/2018 13:15,20.91,4.5
07/01/2018 13:30,20.36,4.36
07/01/2018 13:45,20.26,4.37
07/01/2018 14:00,19.81,4.39
07/01/2018 14:15,20.18,4.38
07/01/2018 14:30,20.52,4.68
07/01/2018 14:45,20.67,4.54
07/01/2018 15:00,20.47,4.51
07/01/2018 15:15,19.68,4.25
07/01/2018 15:30,20.06,4.22
07/01/2018 15:45,19.84,4.32
07/01/2018 16:00,19.72,4.26
07/01/2018 16:15,19.76,4.42
07/01/2018 16:30,19.89,4.31
07/01/2018 16:45,19.93,4.24
07/01/2018 17:00,20.01,4.11
07/01/2018 17:15,19.64,4.16
07/01/2018 17:30,20.09,4.19
07/01/2018 17:45,19.77,3.83
07/01/2018 18:00,20,3.94
07/01/2018 18:15,19.84,4.09
07/01/2018 18:30,20.32,4.14
07/01/2018 18:45,20.24,4.03
07/01/2018 19:00,19.96,4
07/01/2018 19:15,19.69,3.81
07/01/2018 19:30,18.8,3.4
07/01/2018 19:45,18.57,3.04
07/01/2018 20:00,17.8,2.51
07/01/2018 20:15,18.08,2.54
07/01/2018 20:30,17.98,2.48
07/01/2018 20:45,18.05,2.52
07/01/2018 21:00,18.39,2.52
07/01/2018 21:15,18.17,2.71
07/01/2018 21:30,18.37,2.64
07/01/2018 21:45,17.94,2.6
07/01/2018 22:00,17.47,2.53
07/01/2018 22:15,17.17,2.48
07/01/2018 22:30,17.11,2.42
07/01/2018 22:45,16.65,2.41
07/01/2018 23:00,15.79,2.34
07/01/2018 23:15,15.72,2.28
07/01/2018 23:30,15.42,2.23
07/01/2018 23:45,15.61,2.31
08/01/2018 00:00,15.19,2.21
08/01/2018 00:15,15.4,1.92
08/01/2018 00:30,15,2.02
08/01/2018 00:45,15.05,2.49
08/01/2018 01:00,14.51,2.22
08/01/2018 01:15,13.83,2.09
08/01/2018 01:30,13.57,2.24
08/01/2018 01:45,13.16,2.1
08/01/2018 02:00,13.16,2.3
08/01/2018 02:15,13.25,2.35
08/01/2018 02:30,12.74,1.93
08/01/2018 02:45,12.76,1.99
08/01/2018 03:00,12.61,1.89
08/01/2018 03:15,12.57,1.89
08/01/2018 03:30,12.74,2.01
08/01/2018 03:45,12.34,1.77
08/01/2018 04:00,12.61,1.99
08/01/2018 04:15,12.43,1.78
08/01/2018 04:30,12.34,1.68
08/01/2018 04:45,12.59,1.84
08/01/2018 05:00,13.33,2.15
08/01/2018 05:15,14.01,2.55
08/01/2018 05:30,13.84,2.32
08/01/2018 05:45,14.05,2.41
08/01/2018 06:00,15.07,2.75
08/01/2018 06:15,16.43,3.03
08/01/2018 06:30,17.1,3.64
08/01/2018 06:45,18.24,3.82
08/01/2018 07:00,19.25,4.61
08/01/2018 07:15,20.83,5.36
08/01/2018 07:30,21.27,5.48
08/01/2018 07:45,22.55,-1.08
08/01/2018 08:00,23.63,-0.65
08/01/2018 08:15,23.86,-0.67
08/01/2018 08:30,24.05,-1.24
08/01/2018 08:45,24.65,-1
08/01/2018 09:00,25.84,-0.28
08/01/2018 09:15,26.16,-0.48
08/01/2018 09:30,25.94,-0.19
08/01/2018 09:45,25.97,0.12
08/01/2018 10:00,26.85,0.11
08/01/2018 10:15,27.05,0.29
08/01/2018 10:30,26.94,0.15
08/01/2018 10:45,26.78,0.28
08/01/2018 11:00,27.55,0.44
08/01/2018 11:15,27.3,0.4
08/01/2018 11:30,27.79,0.96
08/01/2018 11:45,27.97,0.96
08/01/2018 12:00,28,0.97
08/01/2018 12:15,28.16,1.05
08/01/2018 12:30,28.09,1.3
08/01/2018 12:45,28.25,1.34
08/01/2018 13:00,28.72,1.4
08/01/2018 13:15,28.58,1.56
08/01/2018 13:30,28.62,1.69
08/01/2018 13:45,28.98,1.74
08/01/2018 14:00,28.95,1.67
08/01/2018 14:15,29.08,1.85
08/01/2018 14:30,28.69,1.7
08/01/2018 14:45,28.88,1.61
08/01/2018 15:00,28.52,1.63
08/01/2018 15:15,28.02,1.44
08/01/2018 15:30,28.42,1.48
08/01/2018 15:45,28.48,1.53
08/01/2018 16:00,27.75,1.66
08/01/2018 16:15,28.3,1.55
08/01/2018 16:30,27.91,1.52
08/01/2018 16:45,28.38,1.74
08/01/2018 17:00,28.74,1.74
08/01/2018 17:15,28.37,1.23
08/01/2018 17:30,27.21,0.91
08/01/2018 17:45,27.06,0.75
08/01/2018 18:00,26.31,-0.63
08/01/2018 18:15,24.87,-1.65
08/01/2018 18:30,24.41,-0.8
08/01/2018 18:45,24.36,-0.99
08/01/2018 19:00,23.61,-1.36
08/01/2018 19:15,22.82,-1.8
08/01/2018 19:30,22.84,-1.81
08/01/2018 19:45,22.05,-2.24
08/01/2018 20:00,21.63,-2.17
08/01/2018 20:15,21.43,-2.39
08/01/2018 20:30,21.15,-2.5
08/01/2018 20:45,20.49,-2.8
08/01/2018 21:00,20.43,-3.08
08/01/2018 21:15,20.7,-2.86
08/01/2018 21:30,20.12,-3.01
08/01/2018 21:45,20.04,-3.1
08/01/2018 22:00,19.3,-3.28
08/01/2018 22:15,18.06,2.67
08/01/2018 22:30,17.77,2.69
08/01/2018 22:45,17.14,2.8
08/01/2018 23:00,16.5,2.68
08/01/2018 23:15,16.51,2.76
08/01/2018 23:30,16.13,2.61
08/01/2018 23:45,16.04,2.59
09/01/2018 00:00,16.03,2.53
09/01/2018 00:15,15.63,2.36
09/01/2018 00:30,15.43,2.19
09/01/2018 00:45,15.07,2.33
09/01/2018 01:00,14.56,1.95
09/01/2018 01:15,14.01,2
09/01/2018 01:30,13.47,1.9
09/01/2018 01:45,13.19,1.93
09/01/2018 02:00,12.9,1.79
09/01/2018 02:15,12.89,1.9
09/01/2018 02:30,12.91,2.07
09/01/2018 02:45,12.86,2.09
09/01/2018 03:00,12.72,2
09/01/2018 03:15,12.63,1.95
09/01/2018 03:30,12.5,1.98
09/01/2018 03:45,12.48,1.87
09/01/2018 04:00,12.51,1.99
09/01/2018 04:15,12.32,1.8
09/01/2018 04:30,12.43,1.77
09/01/2018 04:45,12.51,1.79
09/01/2018 05:00,13.08,2.13
09/01/2018 05:15,13.44,2.23
09/01/2018 05:30,13.35,2.24
09/01/2018 05:45,13.98,2.2
09/01/2018 06:00,14.77,2.46
09/01/2018 06:15,16.01,3.24
09/01/2018 06:30,16.38,3.11
09/01/2018 06:45,17.59,3.35
09/01/2018 07:00,18.74,3.93
09/01/2018 07:15,20.63,5.06
09/01/2018 07:30,21.09,5.2
09/01/2018 07:45,21.62,5.17
09/01/2018 08:00,22.25,5.58
09/01/2018 08:15,23.44,-0.59
09/01/2018 08:30,24.21,-1.29
09/01/2018 08:45,24.67,-1.31
09/01/2018 09:00,25.12,-0.59
09/01/2018 09:15,26.13,-0.3
09/01/2018 09:30,26.2,-0.19
09/01/2018 09:45,26.35,0.1
09/01/2018 10:00,26.86,0.32
09/01/2018 10:15,27.62,0.74
09/01/2018 10:30,27.36,0.94
09/01/2018 10:45,27.28,0.79
09/01/2018 11:00,28.04,1.01
09/01/2018 11:15,27.77,0.84
09/01/2018 11:30,27.76,1.05
09/01/2018 11:45,27.95,1.13
09/01/2018 12:00,28.01,1.14
09/01/2018 12:15,27.88,1.32
09/01/2018 12:30,29.43,2.02
09/01/2018 12:45,28.34,1.67
09/01/2018 13:00,27.86,1.79
09/01/2018 13:15,28.27,1.89
09/01/2018 13:30,28.88,2.02
09/01/2018 13:45,27.84,1.74
09/01/2018 14:00,28.01,1.64
09/01/2018 14:15,28.51,1.91
09/01/2018 14:30,27.87,1.63
09/01/2018 14:45,28.19,1.91